x

Northwestern Hawaii Two - 190nm Nw Of Kauai Is, Hi (51101) Wave Buoy

5:50pm - Sun 20th Apr 2014 All times are HST. -10 hours from GMT.

  • Sig Wave height 7.9ft
  • Swell Direction
  • Peak Period 7s
  • Average Period 6s
  • Wind
    20mph, 25mph gusts
  • Sea Temp 74°f
  • Air Temp 73°f
  • Sea Pressure 1022.1mb
  • Northwestern Hawaii Two - 190nm Nw Of Kauai Is, Hi
  • Northwestern Hawaii Two - 190nm Nw Of Kauai Is, Hi

More Historic Weather Station data

Upgrade to MSW Pro to gain access to the past 30 days of data for over 8000 Wavebouys and Weather Stations around the globe.

Join Pro

Comparision Forecast

View Surf forecast
   
Sun 04/20 5:50pm 8ft 7s 6s 20 25 mph 1022.1mb 74f 73f
4:50pm 7ft 10s 6s 20 25 mph 1022mb 74f 73f
3:50pm 7.5ft 7s 6s 22 25 mph 1022mb 74f 73f
2:50pm 8ft 10s 6s 20 22 mph 1022.5mb 74f 73f
1:50pm 8ft 9s 6s 20 25 mph 1022.9mb 74f 73f
12:50pm 8ft 9s 6s 18 22 mph 1023.4mb 74f 72f
11:50am 7ft 10s 6s 20 22 mph 1023.8mb 74f 72f
10:50am 8ft 11s 6s 22 25 mph 1024mb 74f 72f
9:50am 8ft 11s 6s 22 27 mph 1023.9mb 74f 72f
8:50am 9ft 11s 7s 20 25 mph 1023.6mb 74f 72f
7:50am 8.5ft 11s 6s 22 27 mph 1023.2mb 74f 72f
6:50am 8ft 11s 6s 22 27 mph 1022.5mb 74f 72f
5:50am 9ft 11s 6s 22 27 mph 1022mb 74f 72f
4:50am 8.5ft 11s 7s 22 27 mph 1021.6mb 74f 72f
3:50am 7.5ft 11s 6s 20 25 mph 1021.5mb 74f 72f
2:50am 8ft 11s 7s 22 27 mph 1021.5mb 74f 72f
1:50am 8.5ft 12s 7s 22 27 mph 1021.8mb 74f 72f
12:50am 8ft 11s 6s 22 29 mph 1022.5mb 74f 72f
Sat 04/19 11:50pm 8ft 12s 7s 22 27 mph 1022.9mb 74f 72f
10:50pm 8ft 12s 7s 22 27 mph 1022.8mb 74f 72f
9:50pm 9ft 12s 7s 22 27 mph 1022.7mb 74f 72f
8:50pm 8ft 12s 6s 22 27 mph 1022.5mb 74f 72f
7:50pm 7.5ft 12s 6s 22 27 mph 1021.7mb 74f 72f
6:50pm 7ft 12s 6s 20 25 mph 1021.4mb 74f 73f
5:50pm  -   -   -  20 22 mph 1020.8mb 74f 73f
4:50pm 6.5ft 11s 7s 18 22 mph 1020.3mb 74f 73f
3:50pm 6.5ft 12s 6s 16 20 mph 1020.3mb 74f 73f
2:50pm 6.5ft 12s 6s 16 18 mph 1020.4mb 74f 73f
1:50pm 7ft 12s 7s 16 20 mph 1020.7mb 74f 73f
12:50pm 6.5ft 12s 6s 16 20 mph 1021.3mb 74f 73f
11:50am 6.5ft 12s 6s 18 22 mph 1021.5mb 74f 72f
10:50am 6ft 11s 6s 18 20 mph 1022.1mb 74f 71f
9:50am  -   -   -  20
mph
- - 71f
8:50am 6ft 13s 6s 18 22 mph 1022.1mb 74f 72f
7:50am 6ft 13s 6s 16 18 mph 1021.8mb 74f 72f
6:50am 6.5ft 13s 6s 16 18 mph 1021.3mb 74f 71f
5:50am 6ft 7s 6s 16 18 mph 1020.5mb 74f 72f
4:50am 6ft 13s 6s 18 20 mph 1020mb 74f 72f
3:50am 5.5ft 7s 6s 16 18 mph 1019.8mb 74f 71f
2:50am 5.5ft 14s 6s 18 20 mph 1019.9mb 74f 72f
1:50am 5ft 9s 6s 16 20 mph 1020.5mb 74f 72f
12:50am 5ft 9s 6s 16 18 mph 1021.1mb 74f 73f
Fri 04/18 11:50pm 5ft 10s 6s 13 18 mph 1021.4mb 74f 73f
10:50pm 5ft 9s 6s 16 18 mph 1021.6mb 74f 73f
9:50pm 5ft 8s 6s 16 18 mph 1021.7mb 74f 73f
8:50pm 5ft 8s 6s 18 20 mph 1021.2mb 74f 73f
7:50pm 5ft 8s 5s 18 20 mph 1020.7mb 74f 73f
6:50pm 5ft 8s 5s 18 22 mph 1020.2mb 74f 73f
5:50pm 5.5ft 8s 6s 18 22 mph 1020.1mb 74f 73f
4:50pm 5.5ft 8s 5s 20 22 mph 1020.2mb 74f 73f
3:50pm 5ft 8s 5s 18 20 mph 1020.3mb 74f 73f
2:50pm 5ft 8s 6s 18 20 mph 1020.5mb 74f 73f
1:50pm 5ft 9s 6s 16 20 mph 1021.1mb 74f 73f
12:50pm 5ft 8s 6s 16 20 mph 1021.6mb 74f 73f
11:50am 5ft 9s 6s 18 20 mph 1021.9mb 74f 73f
10:50am 5.5ft 10s 6s 18 20 mph 1022.4mb 74f 73f
9:50am 6ft 9s 6s 18 20 mph 1022.3mb 74f 73f
8:50am 5.5ft 11s 6s 16 20 mph 1022.2mb 74f 72f
7:50am 6ft 9s 6s 16 18 mph 1021.8mb 74f 72f
6:50am 5.5ft 8s 6s 13 16 mph 1021.4mb 74f 71f
5:50am 5.5ft 8s 6s 16 18 mph 1020.6mb 74f 72f
4:50am 6ft 11s 7s 16 20 mph 1020.5mb 74f 72f
3:50am 6ft 12s 7s 16 20 mph 1020.8mb 74f 71f
2:50am 5.5ft 9s 7s 16 18 mph 1021mb 74f 72f
1:50am 5ft 11s 7s 13 18 mph 1021.5mb 74f 72f
12:50am 6ft 11s 7s 13 16 mph 1022.1mb 74f 72f
Thu 04/17 11:50pm 6ft 12s 7s 13 18 mph 1022.6mb 74f 72f
10:50pm 5.5ft 10s 7s 13 18 mph 1022.9mb 74f 72f
9:50pm 5.5ft 12s 7s 13 18 mph 1022.7mb 74f 72f
8:50pm 6.5ft 12s 7s 13 16 mph 1021.9mb 74f 72f
7:50pm 6ft 12s 7s 16 18 mph 1021mb 74f 72f
6:50pm 6ft 12s 7s 13 16 mph 1020.4mb 74f 73f
5:50pm 7ft 12s 7s 16 18 mph 1019.7mb 74f 73f
4:50pm 7ft 12s 7s 13 18 mph 1020mb 74f 73f
3:50pm 6.5ft 12s 7s 13 18 mph 1019.9mb 74f 73f
2:50pm 6.5ft 13s 7s 11 13 mph 1020.6mb 74f 73f
1:50pm 7ft 13s 7s 11 16 mph 1021.2mb 74f 73f
12:50pm 6.5ft 13s 8s 13 16 mph 1021.6mb 74f 73f
11:50am 7.5ft 13s 8s 13 16 mph 1022.1mb 74f 73f
10:50am 7ft 13s 8s 13 16 mph 1022.3mb 74f 73f
9:50am 6.5ft 13s 7s 13 16 mph 1022.2mb 74f 73f
8:50am 7ft 13s 7s 13 16 mph 1022mb 74f 73f
7:50am 7ft 12s 7s 13 16 mph 1021.8mb 74f 73f
6:50am 8ft 13s 7s 11 16 mph 1021.3mb 74f 72f
5:50am 8.5ft 13s 8s 13 16 mph 1021mb 74f 72f